Location: Central Coast NSW, Australia
(33.2407°S, 151.4316°E)
Time: 23:01:14
(UTC+10:00)

Hubble Space Telescope - Visible Passes

Search period start: 03 August 2020 00:00
Search period end: 13 August 2020 00:00
Orbit: 536 x 540 km, 28.5° (Epoch: 02 August)

Date Brightness Start Highest point End Pass type
(mag) Time Alt. Az. Time Alt. Az. Time Alt. Az.
03 Aug 3.1 19:32:43 10° NW 19:34:06 18° NNW 19:34:06 18° NNW visible
04 Aug 3.1 17:43:10 10° N 17:44:48 12° NNE 17:46:27 10° NE visible
04 Aug 2.6 19:21:48 10° NW 19:24:07 25° NNW 19:24:07 25° NNW visible
05 Aug 2.0 19:10:56 10° NW 19:14:07 32° N 19:14:07 32° N visible
06 Aug 1.6 19:00:06 10° WNW 19:03:57 37° N 19:04:05 37° NNE visible
07 Aug 1.6 18:49:18 10° WNW 18:53:13 40° N 18:54:03 35° NE visible
08 Aug 1.6 18:38:32 10° WNW 18:42:29 42° N 18:44:01 29° NE visible
09 Aug 1.6 18:27:47 10° WNW 18:31:45 43° N 18:34:00 22° ENE visible
09 Aug 3.9 20:08:54 10° WNW 20:09:20 12° WNW 20:09:20 12° WNW visible
10 Aug 1.6 18:17:03 10° WNW 18:21:01 43° N 18:24:00 16° ENE visible
10 Aug 3.5 19:58:16 10° WNW 19:59:20 16° WNW 19:59:20 16° WNW visible
11 Aug 1.7 18:06:19 10° WNW 18:10:16 42° N 18:14:02 11° ENE visible
11 Aug 3.2 19:47:41 10° WNW 19:49:23 19° NW 19:49:23 19° NW visible
12 Aug 1.8 17:55:38 10° WNW 17:59:32 40° N 18:03:26 10° ENE visible
12 Aug 3.0 19:37:08 10° WNW 19:39:29 20° NW 19:39:29 20° NW visible
